Weather History for PAWG - April, 2013

Change the Weather History Date:

Friday, April 26, 2013

  Actual Average Record
Temperature  
Mean Temperature 40 °F -  
Max Temperature 44 °F 52 °F 68 °F (1983)
Min Temperature 37 °F 37 °F 21 °F (2002)
Degree Days  
Heating Degree Days 24    
Moisture  
Dew Point 37 °F    
Average Humidity 80    
Maximum Humidity 87    
Minimum Humidity 71    
Precipitation  
Precipitation 0.24 in - - ()
Sea Level Pressure  
Sea Level Pressure 29.57 in    
Wind  
Wind Speed 12 mph (SSE)    
Max Wind Speed 21 mph    
Max Gust Speed 29 mph    
Visibility 5 miles    
Events      
Averages and records for this station are not official NWS values.
T = Trace of Precipitation, MM = Missing Value Source: NWS Daily Summary

Daily Weather History Graph

Daily Weather History Graph

Search for Another Location

Airport or City:

Trip Planner

Search our weather history database for the weather conditions in past years. The results will help you decide how hot, cold, wet, or windy it might be!

Date:

Astronomy

Apr. 26, 2013 Rise Set
Actual Time 5:14 AM AKDT 8:21 PM AKDT
Civil Twilight 4:30 AM AKDT 9:05 PM AKDT
Nautical Twilight 3:31 AM AKDT 10:05 PM AKDT
Astronomical Twilight 2:05 AM AKDT 11:34 PM AKDT
Moon 10:10 PM AKDT (4/26) 5:36 AM AKDT (4/26)
Length of Visible Light 16h 35m
Length of Day
15h 07m
Full, 99% of the Moon is Illuminated
Apr 26
Full
May 2
Last Quarter
May 9
New
May 17
First Quarter
May 24
Full

Hourly Weather History & Observations

Time (AKDT) Temp. Windchill Dew Point Humidity Pressure Visibility Wind Dir Wind Speed Gust Speed Precip Events Conditions
12:16 AM 42.8 °F 35.8 °F 37.4 °F 81% 29.61 in 5.0 mi ESE 13.8 mph 23.0 mph N/A   Overcast
12:36 AM 42.8 °F 35.1 °F 35.6 °F 76% 29.61 in 5.0 mi ESE 16.1 mph 21.9 mph N/A   Overcast
12:56 AM 42.8 °F 34.8 °F 35.6 °F 76% 29.60 in 5.0 mi ESE 17.3 mph 21.9 mph N/A   Overcast
1:16 AM 41.0 °F 31.6 °F 35.6 °F 81% 29.59 in 5.0 mi ESE 20.7 mph 25.3 mph 0.01 in   Overcast
1:36 AM 41.0 °F 31.9 °F 35.6 °F 81% 29.59 in 5.0 mi ESE 19.6 mph 25.3 mph 0.01 in   Overcast
1:56 AM 41.0 °F 31.6 °F 35.6 °F 81% 29.58 in 5.0 mi ESE 20.7 mph 27.6 mph 0.01 in   Overcast
2:16 AM 41.0 °F 32.2 °F 35.6 °F 81% 29.58 in 4.0 mi ESE 18.4 mph 25.3 mph N/A   Overcast
2:36 AM 41.0 °F 32.2 °F 35.6 °F 81% 29.57 in 8.0 mi ESE 18.4 mph 28.8 mph N/A   Overcast
2:56 AM 41.0 °F 32.2 °F 35.6 °F 81% 29.57 in 5.0 mi ESE 18.4 mph 26.5 mph N/A   Overcast
3:16 AM 41.0 °F 31.9 °F 35.6 °F 81% 29.56 in 5.0 mi ESE 19.6 mph 24.2 mph 0.01 in   Overcast
3:36 AM 41.0 °F 32.5 °F 35.6 °F 81% 29.56 in 5.0 mi ESE 17.3 mph 27.6 mph 0.01 in   Overcast
3:56 AM 42.8 °F 34.5 °F 37.4 °F 81% 29.55 in 7.0 mi ESE 18.4 mph 27.6 mph 0.01 in   Overcast
4:16 AM 42.8 °F 34.3 °F 37.4 °F 81% 29.55 in 6.0 mi East 19.6 mph 26.5 mph N/A   Overcast
4:36 AM 42.8 °F 34.5 °F 37.4 °F 81% 29.55 in 7.0 mi ESE 18.4 mph 25.3 mph N/A   Overcast
4:56 AM 42.8 °F 35.1 °F 37.4 °F 81% 29.56 in 7.0 mi ESE 16.1 mph 24.2 mph N/A   Overcast
5:16 AM 42.8 °F 34.8 °F 37.4 °F 81% 29.56 in 6.0 mi ESE 17.3 mph 24.2 mph N/A   Overcast
5:36 AM 42.8 °F 36.2 °F 37.4 °F 81% 29.56 in 7.0 mi ESE 12.7 mph - 0.01 in   Overcast
5:56 AM 42.8 °F 35.8 °F 37.4 °F 81% 29.56 in 7.0 mi ESE 13.8 mph 20.7 mph 0.01 in   Overcast
6:16 AM 44.6 °F 37.2 °F 39.2 °F 81% 29.55 in 7.0 mi ESE 17.3 mph 23.0 mph N/A   Overcast
6:36 AM 44.6 °F 36.9 °F 39.2 °F 81% 29.54 in 7.0 mi ESE 18.4 mph 24.2 mph N/A   Overcast
6:56 AM 44.6 °F 36.6 °F 39.2 °F 81% 29.54 in 7.0 mi ESE 19.6 mph 24.2 mph N/A   Overcast
7:16 AM 44.6 °F 36.6 °F 39.2 °F 81% 29.52 in 7.0 mi SE 19.6 mph 26.5 mph N/A   Overcast
7:36 AM 44.6 °F 40.2 °F 39.2 °F 81% 29.56 in 7.0 mi South 8.1 mph - 0.01 in   Overcast
7:56 AM 44.6 °F 40.7 °F 39.2 °F 81% 29.56 in 7.0 mi WSW 6.9 mph - 0.01 in   Overcast
8:16 AM 44.6 °F 40.2 °F 39.2 °F 81% 29.58 in 7.0 mi South 8.1 mph - N/A   Overcast
8:36 AM 44.6 °F - 39.2 °F 81% 29.58 in 7.0 mi Calm Calm - 0.01 in   Overcast
8:56 AM 44.6 °F 42.2 °F 39.2 °F 81% 29.57 in 7.0 mi NE 4.6 mph - 0.01 in   Overcast
9:16 AM 44.6 °F 40.7 °F 39.2 °F 81% 29.57 in 7.0 mi SSE 6.9 mph - N/A   Overcast
9:36 AM 44.6 °F 42.2 °F 39.2 °F 81% 29.57 in 5.0 mi ESE 4.6 mph - 0.01 in   Overcast
9:56 AM 44.6 °F 40.7 °F 39.2 °F 81% 29.58 in 5.0 mi ESE 6.9 mph - 0.03 in   Overcast
10:16 AM 44.6 °F 41.4 °F 37.4 °F 76% 29.58 in 5.0 mi SE 5.8 mph - N/A   Overcast
10:36 AM 44.6 °F 40.7 °F 39.2 °F 81% 29.59 in 5.0 mi SSE 6.9 mph - 0.02 in   Overcast
10:56 AM 44.6 °F 38.4 °F 37.4 °F 76% 29.59 in 5.0 mi SE 12.7 mph 17.3 mph 0.02 in   Overcast
11:16 AM 44.6 °F 41.4 °F 37.4 °F 76% 29.61 in 5.0 mi SSE 5.8 mph - N/A   Overcast
11:36 AM 44.6 °F 41.4 °F 37.4 °F 76% 29.61 in 5.0 mi SSE 5.8 mph - 0.01 in   Overcast
11:56 AM 44.6 °F 39.2 °F 37.4 °F 76% 29.61 in 5.0 mi SE 10.4 mph 19.6 mph 0.02 in   Overcast
12:16 PM 44.6 °F 39.7 °F 37.4 °F 76% 29.61 in 7.0 mi ESE 9.2 mph - N/A   Overcast
12:36 PM 44.6 °F 39.2 °F 37.4 °F 76% 29.60 in 7.0 mi ESE 10.4 mph 19.6 mph 0.01 in   Overcast
12:56 PM 44.6 °F 40.7 °F 37.4 °F 76% 29.62 in 7.0 mi South 6.9 mph 17.3 mph 0.02 in   Overcast
1:16 PM 44.6 °F 38.8 °F 35.6 °F 71% 29.62 in 5.0 mi SE 11.5 mph 21.9 mph 0.01 in   Overcast
1:36 PM 44.6 °F 39.7 °F 39.2 °F 81% 29.62 in 5.0 mi South 9.2 mph - 0.01 in   Overcast
1:56 PM 44.6 °F 43.1 °F 37.4 °F 76% 29.62 in 4.0 mi SSE 3.5 mph - 0.02 in   Overcast
2:16 PM 44.6 °F 41.4 °F 37.4 °F 76% 29.62 in 4.0 mi South 5.8 mph 19.6 mph N/A   Overcast
2:36 PM 44.6 °F 41.4 °F 37.4 °F 76% 29.63 in 4.0 mi South 5.8 mph - N/A   Overcast
2:56 PM 44.6 °F 40.7 °F 37.4 °F 76% 29.63 in 4.0 mi SSE 6.9 mph 24.2 mph 0.01 in   Overcast
3:16 PM 44.6 °F 39.2 °F 35.6 °F 71% 29.63 in 4.0 mi SSE 10.4 mph 20.7 mph N/A   Overcast
3:36 PM 44.6 °F 38.4 °F 35.6 °F 71% 29.62 in 4.0 mi SSE 12.7 mph 19.6 mph N/A   Overcast
3:56 PM 44.6 °F 40.7 °F 37.4 °F 76% 29.62 in 4.0 mi SSE 6.9 mph - 0.01 in   Overcast
4:16 PM 44.6 °F 41.4 °F 35.6 °F 71% 29.62 in 4.0 mi SSW 5.8 mph - N/A   Overcast
4:36 PM 42.8 °F 39.3 °F 37.4 °F 81% 29.61 in 4.0 mi South 5.8 mph - N/A   Overcast
4:56 PM 42.8 °F 41.1 °F 35.6 °F 76% 29.60 in 4.0 mi SE 3.5 mph - N/A   Overcast
5:16 PM 42.8 °F - 37.4 °F 81% 29.59 in 4.0 mi Calm Calm - 0.01 in   Overcast
5:36 PM 42.8 °F 37.5 °F 37.4 °F 81% 29.58 in 4.0 mi East 9.2 mph - 0.01 in   Overcast
5:56 PM 42.8 °F 41.1 °F 37.4 °F 81% 29.57 in 4.0 mi SE 3.5 mph - 0.01 in   Overcast
6:16 PM 42.8 °F 41.1 °F 37.4 °F 81% 29.56 in 4.0 mi South 3.5 mph - N/A   Overcast
6:36 PM 42.8 °F 39.3 °F 37.4 °F 81% 29.55 in 4.0 mi ESE 5.8 mph - 0.01 in   Overcast
6:56 PM 42.8 °F - 37.4 °F 81% 29.54 in 4.0 mi Calm Calm - 0.01 in   Overcast
7:16 PM 42.8 °F - 35.6 °F 76% 29.54 in 4.0 mi Calm Calm - N/A   Overcast
7:36 PM 41.0 °F 34.7 °F 35.6 °F 81% 29.54 in 4.0 mi West 10.4 mph - N/A   Overcast
7:56 PM 39.2 °F 35.0 °F 35.6 °F 87% 29.54 in 4.0 mi WSW 5.8 mph - N/A   Overcast
8:16 PM 39.2 °F 37.0 °F 35.6 °F 87% 29.53 in 4.0 mi WSW 3.5 mph - 0.01 in   Overcast
8:36 PM 39.2 °F 35.9 °F 35.6 °F 87% 29.52 in 4.0 mi WSW 4.6 mph - 0.01 in   Overcast
8:56 PM 39.2 °F 37.0 °F 35.6 °F 87% 29.52 in 4.0 mi WSW 3.5 mph - 0.01 in   Overcast
9:16 PM 39.2 °F 37.0 °F 35.6 °F 87% 29.52 in 4.0 mi SW 3.5 mph - N/A   Overcast
9:36 PM 39.2 °F 34.2 °F 33.8 °F 81% 29.53 in 4.0 mi South 6.9 mph - 0.01 in   Overcast
9:56 PM 39.2 °F 34.2 °F 33.8 °F 81% 29.53 in 4.0 mi South 6.9 mph - 0.01 in   Overcast
10:16 PM 39.2 °F 35.9 °F 33.8 °F 81% 29.53 in 4.0 mi WSW 4.6 mph - N/A   Overcast
10:36 PM 39.2 °F 34.2 °F 33.8 °F 81% 29.54 in 4.0 mi SSW 6.9 mph - N/A   Overcast
10:56 PM 37.4 °F 32.1 °F 32.0 °F 81% 29.54 in 4.0 mi WSW 6.9 mph 16.1 mph 0.01 in   Overcast
11:16 PM 37.4 °F 34.9 °F 32.0 °F 81% 29.55 in 10.0 mi SW 3.5 mph - N/A   Mostly Cloudy
11:36 PM 37.4 °F 32.8 °F 30.2 °F 75% 29.55 in 10.0 mi SW 5.8 mph - N/A   Scattered Clouds
11:56 PM 37.4 °F - 30.2 °F 75% 29.56 in 10.0 mi Calm Calm - 0.01 in   Partly Cloudy